LPA502 UHWW-UHHH

Flight info

Callsign LPA502
Flight time N/A
Altitude 33000
Route DOLMA2F DOLMA B356 TD B355 ARDEL ARDEL6G
Aircraft A320/M-SDE3FGHIRWY/LB1

Departure

Time 2026-04-20 19:31
Airport Vladivostok International Airport (UHWW)

Arrival

Time N/A
Airport Khabarovsk Novy Airport (UHHH)
Time Latitude Longitude Altitude Speed Heading
2026-04-20 18:33 43.39852 132.16837 70 ft 0 kts 152°
2026-04-20 19:21 43.39861 132.16830 60 ft 3 kts 152°
2026-04-20 19:21 43.39879 132.16817 62 ft 3 kts 150°
2026-04-20 19:21 43.39896 132.16803 61 ft 3 kts 149°
2026-04-20 19:21 43.39914 132.16788 61 ft 3 kts 146°
2026-04-20 19:22 43.39928 132.16775 61 ft 1 kts 142°
2026-04-20 19:22 43.39929 132.16774 61 ft 0 kts 142°
2026-04-20 19:24 43.39928 132.16786 65 ft 4 kts 93°
2026-04-20 19:25 43.39948 132.16805 63 ft 5 kts 39°
2026-04-20 19:25 43.39979 132.16868 69 ft 9 kts 60°
2026-04-20 19:25 43.40005 132.16932 67 ft 7 kts 60°
2026-04-20 19:25 43.40026 132.16982 69 ft 5 kts 61°
2026-04-20 19:26 43.40040 132.17019 69 ft 4 kts 61°
2026-04-20 19:26 43.40057 132.17062 61 ft 5 kts 60°
2026-04-20 19:26 43.40077 132.17092 70 ft 4 kts 32°
2026-04-20 19:26 43.40119 132.17087 66 ft 8 kts 336°
2026-04-20 19:27 43.40163 132.17056 66 ft 6 kts 331°
2026-04-20 19:27 43.40196 132.17031 65 ft 5 kts 331°
2026-04-20 19:27 43.40227 132.17007 68 ft 8 kts 331°
2026-04-20 19:27 43.40274 132.16973 63 ft 7 kts 332°
2026-04-20 19:28 43.40313 132.16944 66 ft 6 kts 331°
2026-04-20 19:28 43.40336 132.16927 66 ft 0 kts 331°
2026-04-20 19:29 43.40353 132.16914 65 ft 7 kts 331°
2026-04-20 19:29 43.40407 132.16873 63 ft 9 kts 331°
2026-04-20 19:29 43.40435 132.16811 66 ft 7 kts 267°
2026-04-20 19:30 43.40429 132.16789 60 ft 0 kts 243°
2026-04-20 19:30 43.40424 132.16777 61 ft 9 kts 243°
2026-04-20 19:30 43.40278 132.16414 69 ft 81 kts 241°
2026-04-20 19:30 43.39887 132.15443 69 ft 150 kts 241°
2026-04-20 19:31 43.39311 132.14012 277 ft 189 kts 241°
2026-04-20 19:31 43.38820 132.12239 919 ft 201 kts 267°
2026-04-20 19:31 43.39112 132.10291 1650 ft 225 kts 294°
2026-04-20 19:31 43.40242 132.08641 2127 ft 252 kts 326°
2026-04-20 19:32 43.41941 132.07903 3006 ft 260 kts 346°
2026-04-20 19:32 43.43706 132.07588 4006 ft 257 kts 348°
2026-04-20 19:32 43.45475 132.07343 5013 ft 255 kts 348°
2026-04-20 19:32 43.47267 132.07118 5722 ft 256 kts 348°
2026-04-20 19:33 43.49039 132.06910 5926 ft 255 kts 348°
2026-04-20 19:33 43.50804 132.06721 5977 ft 254 kts 349°
2026-04-20 19:33 43.52544 132.06540 5979 ft 254 kts 349°
2026-04-20 19:33 43.54331 132.06353 5981 ft 254 kts 349°
2026-04-20 19:34 43.56069 132.06170 5977 ft 254 kts 349°
2026-04-20 19:34 43.57837 132.06064 5980 ft 259 kts 359°
2026-04-20 19:34 43.59588 132.06830 5994 ft 274 kts 26°
2026-04-20 19:34 43.60950 132.08733 5989 ft 288 kts 55°
2026-04-20 19:35 43.61893 132.11214 6110 ft 296 kts 58°
2026-04-20 19:35 43.63046 132.13519 6916 ft 291 kts 45°
2026-04-20 19:35 43.64326 132.15701 7744 ft 293 kts 45°
2026-04-20 19:35 43.65615 132.17902 8555 ft 297 kts 44°
2026-04-20 19:36 43.66919 132.20125 9325 ft 300 kts 44°
2026-04-20 19:36 43.68244 132.22377 9971 ft 308 kts 44°
2026-04-20 19:36 43.69652 132.24753 10155 ft 331 kts 44°
2026-04-20 19:36 43.71160 132.27296 10403 ft 350 kts 45°
2026-04-20 19:37 43.72710 132.29939 10978 ft 357 kts 45°
2026-04-20 19:37 43.74279 132.32638 11652 ft 362 kts 45°
2026-04-20 19:37 43.75863 132.35366 12321 ft 366 kts 45°
2026-04-20 19:37 43.77469 132.38122 12978 ft 370 kts 45°
2026-04-20 19:38 43.79094 132.40915 13623 ft 375 kts 45°
2026-04-20 19:38 43.80733 132.43736 14187 ft 378 kts 45°
2026-04-20 19:38 43.82391 132.46586 14777 ft 382 kts 45°
2026-04-20 19:38 43.84066 132.49464 15350 ft 385 kts 45°
2026-04-20 19:39 43.85756 132.52367 15936 ft 389 kts 45°
2026-04-20 19:39 43.87461 132.55297 16552 ft 392 kts 46°
2026-04-20 19:39 43.89179 132.58257 17114 ft 396 kts 46°
2026-04-20 19:39 43.90911 132.61240 17683 ft 399 kts 46°
2026-04-20 19:40 43.92659 132.64259 18207 ft 403 kts 46°
2026-04-20 19:40 43.94423 132.67309 18637 ft 407 kts 46°
2026-04-20 19:40 43.96202 132.70391 19083 ft 412 kts 46°
2026-04-20 19:40 43.97998 132.73507 19536 ft 416 kts 46°
2026-04-20 19:41 43.99816 132.76661 19987 ft 420 kts 46°
2026-04-20 19:41 44.01654 132.79851 20439 ft 425 kts 47°
2026-04-20 19:41 44.03507 132.83071 20886 ft 429 kts 47°
2026-04-20 19:41 44.05381 132.86332 21328 ft 434 kts 47°
2026-04-20 19:42 44.07268 132.89621 21757 ft 438 kts 47°
2026-04-20 19:42 44.09176 132.92950 22168 ft 442 kts 47°
2026-04-20 19:42 44.11096 132.96302 22576 ft 446 kts 47°
2026-04-20 19:42 44.13039 132.99697 22984 ft 450 kts 47°
2026-04-20 19:43 44.14992 133.03114 23355 ft 453 kts 47°
2026-04-20 19:43 44.16959 133.06566 23718 ft 456 kts 48°
2026-04-20 19:43 44.18947 133.10015 24065 ft 456 kts 45°
2026-04-20 19:43 44.21153 133.13089 24398 ft 454 kts 36°
2026-04-20 19:44 44.23650 133.15756 24720 ft 453 kts 32°
2026-04-20 19:44 44.26198 133.18358 25037 ft 455 kts 32°
2026-04-20 19:44 44.28760 133.20987 25354 ft 458 kts 33°
2026-04-20 19:44 44.31326 133.23634 25659 ft 460 kts 33°
2026-04-20 19:45 44.33911 133.26304 25950 ft 463 kts 34°
2026-04-20 19:45 44.36508 133.28988 26234 ft 466 kts 34°
2026-04-20 19:45 44.39122 133.31696 26517 ft 469 kts 34°
2026-04-20 19:45 44.41750 133.34416 26792 ft 472 kts 34°
2026-04-20 19:46 44.44395 133.37155 27062 ft 475 kts 35°
2026-04-20 19:46 44.47056 133.39915 27366 ft 477 kts 35°
2026-04-20 19:46 44.49726 133.42694 27635 ft 480 kts 36°
2026-04-20 19:46 44.52409 133.45492 27874 ft 483 kts 36°
2026-04-20 19:47 44.55111 133.48310 28125 ft 485 kts 36°
2026-04-20 19:47 44.57827 133.51145 28368 ft 488 kts 36°
2026-04-20 19:47 44.60557 133.53996 28602 ft 490 kts 37°
2026-04-20 19:47 44.63300 133.56864 28832 ft 493 kts 37°
2026-04-20 19:48 44.66055 133.59746 29046 ft 496 kts 37°
2026-04-20 19:48 44.68830 133.62652 29195 ft 500 kts 37°
2026-04-20 19:48 44.71630 133.65586 29342 ft 504 kts 38°
2026-04-20 19:48 44.74449 133.68551 29539 ft 507 kts 38°
2026-04-20 19:49 44.77274 133.71528 29728 ft 509 kts 38°
2026-04-20 19:49 44.80115 133.74523 29895 ft 511 kts 38°
2026-04-20 19:49 44.82963 133.77532 30069 ft 512 kts 38°
2026-04-20 19:49 44.85815 133.80548 30306 ft 512 kts 38°
2026-04-20 19:50 44.88660 133.83557 30563 ft 511 kts 38°
2026-04-20 19:50 44.91503 133.86561 30813 ft 511 kts 38°
2026-04-20 19:50 44.94360 133.89539 31059 ft 510 kts 37°
2026-04-20 19:50 44.97249 133.92454 31313 ft 510 kts 36°
2026-04-20 19:51 45.00158 133.95318 31543 ft 509 kts 36°
2026-04-20 19:51 45.03075 133.98160 31778 ft 510 kts 36°
2026-04-20 19:51 45.05991 134.01006 32038 ft 509 kts 36°
2026-04-20 19:51 45.08895 134.03869 32344 ft 508 kts 36°
2026-04-20 19:52 45.11777 134.06744 32573 ft 507 kts 36°
2026-04-20 19:52 45.17475 134.12490 32625 ft 499 kts 36°
2026-04-20 19:53 45.23084 134.18155 32628 ft 498 kts 37°
2026-04-20 19:53 45.28735 134.23842 32622 ft 498 kts 37°
2026-04-20 19:54 45.34383 134.29541 32616 ft 498 kts 37°
2026-04-20 19:54 45.40022 134.35256 32600 ft 498 kts 38°
2026-04-20 19:55 45.45661 134.40995 32592 ft 498 kts 38°
2026-04-20 19:55 45.51303 134.46740 32596 ft 499 kts 38°
2026-04-20 19:56 45.56001 134.51524 32569 ft 499 kts 38°
2026-04-20 19:56 45.62600 134.58260 32581 ft 499 kts 38°
2026-04-20 19:57 45.68199 134.64006 32627 ft 499 kts 38°
2026-04-20 19:57 45.73828 134.69797 32589 ft 498 kts 38°
2026-04-20 19:58 45.79453 134.75597 32599 ft 498 kts 39°
2026-04-20 19:58 45.85067 134.81411 32602 ft 498 kts 37°
2026-04-20 19:59 45.91259 134.85881 32580 ft 502 kts 18°
2026-04-20 19:59 45.98116 134.87670 32579 ft 502 kts
2026-04-20 20:00 46.05080 134.88579 32581 ft 503 kts
2026-04-20 20:00 46.12051 134.89508 32603 ft 503 kts
2026-04-20 20:01 46.19025 134.90444 32562 ft 504 kts
2026-04-20 20:01 46.26009 134.91380 32561 ft 505 kts
2026-04-20 20:02 46.31824 134.92167 32560 ft 505 kts
2026-04-20 20:02 46.38833 134.93103 32608 ft 506 kts
2026-04-20 20:03 46.46971 134.94196 32566 ft 506 kts
2026-04-20 20:03 46.53984 134.95213 32545 ft 508 kts
2026-04-20 20:04 46.59894 134.96113 32544 ft 510 kts
2026-04-20 20:04 46.66961 134.97000 32574 ft 509 kts
2026-04-20 20:05 46.74017 134.97852 32559 ft 509 kts
2026-04-20 20:05 46.81067 134.98790 32560 ft 508 kts
2026-04-20 20:06 46.88114 134.99734 32559 ft 508 kts
2026-04-20 20:06 46.95116 135.00607 32552 ft 508 kts
2026-04-20 20:07 47.02172 135.01471 32529 ft 510 kts
2026-04-20 20:07 47.09208 135.02340 32045 ft 503 kts
2026-04-20 20:07 47.12679 135.02774 31510 ft 499 kts
2026-04-20 20:08 47.16132 135.03203 30943 ft 496 kts
2026-04-20 20:08 47.19561 135.03634 30370 ft 492 kts
2026-04-20 20:08 47.22960 135.04062 29481 ft 489 kts
2026-04-20 20:08 47.26329 135.04485 28480 ft 483 kts
2026-04-20 20:09 47.29657 135.04905 27680 ft 476 kts
2026-04-20 20:09 47.32924 135.05318 26911 ft 468 kts
2026-04-20 20:09 47.36137 135.05724 26166 ft 459 kts
2026-04-20 20:09 47.39296 135.06125 25452 ft 452 kts
2026-04-20 20:10 47.42400 135.06517 24761 ft 445 kts
2026-04-20 20:10 47.45473 135.06905 24385 ft 441 kts
2026-04-20 20:10 47.48518 135.07291 24012 ft 436 kts
2026-04-20 20:10 47.51523 135.07677 23625 ft 432 kts
2026-04-20 20:11 47.54512 135.08063 23090 ft 432 kts
2026-04-20 20:11 47.57498 135.08445 22585 ft 429 kts
2026-04-20 20:11 47.60459 135.08822 22184 ft 425 kts
2026-04-20 20:11 47.63389 135.09195 21817 ft 419 kts
2026-04-20 20:12 47.66282 135.09566 21420 ft 415 kts
2026-04-20 20:12 47.69141 135.09933 21011 ft 411 kts
2026-04-20 20:12 47.71975 135.10295 20602 ft 407 kts
2026-04-20 20:13 47.77535 135.10995 19805 ft 400 kts
2026-04-20 20:13 47.80334 135.11350 19387 ft 396 kts
2026-04-20 20:13 47.83017 135.11696 19065 ft 391 kts
2026-04-20 20:13 47.85710 135.12047 18703 ft 387 kts
2026-04-20 20:14 47.88381 135.12396 18351 ft 383 kts
2026-04-20 20:14 47.91023 135.12742 18005 ft 379 kts
2026-04-20 20:14 47.93643 135.13084 17586 ft 378 kts
2026-04-20 20:14 47.96270 135.13420 17072 ft 379 kts
2026-04-20 20:15 47.98885 135.13752 16663 ft 376 kts
2026-04-20 20:15 48.01521 135.14089 16392 ft 375 kts
2026-04-20 20:15 48.04099 135.13918 16879 ft 379 kts 350°
2026-04-20 20:15 48.06693 135.13152 17470 ft 383 kts 348°
2026-04-20 20:16 48.09312 135.12310 17958 ft 387 kts 348°
2026-04-20 20:16 48.11940 135.11412 18518 ft 388 kts 347°
2026-04-20 20:16 48.14582 135.10499 19000 ft 392 kts 347°
2026-04-20 20:16 48.17260 135.09585 19467 ft 396 kts 347°
2026-04-20 20:17 48.19958 135.08675 19952 ft 401 kts 347°
2026-04-20 20:17 48.22728 135.07766 20110 ft 415 kts 347°
2026-04-20 20:17 48.25596 135.06837 20247 ft 428 kts 347°
2026-04-20 20:17 48.28540 135.05884 20584 ft 436 kts 347°
2026-04-20 20:18 48.31518 135.04922 21064 ft 441 kts 347°
2026-04-20 20:18 48.34524 135.03943 21677 ft 441 kts 347°
2026-04-20 20:18 48.37525 135.02964 22273 ft 442 kts 347°
2026-04-20 20:18 48.40549 135.01975 22767 ft 446 kts 347°
2026-04-20 20:19 48.43588 135.00980 23175 ft 449 kts 347°
2026-04-20 20:19 48.46658 134.99978 23503 ft 453 kts 347°
2026-04-20 20:19 48.49693 134.98680 23868 ft 455 kts 335°
2026-04-20 20:19 48.52423 134.96308 24206 ft 452 kts 317°
2026-04-20 20:20 48.54605 134.92965 24544 ft 445 kts 300°
2026-04-20 20:20 48.56088 134.88941 24879 ft 434 kts 283°
2026-04-20 20:20 48.56833 134.84601 25218 ft 424 kts 271°
2026-04-20 20:20 48.57309 134.80194 25569 ft 426 kts 271°
2026-04-20 20:21 48.57785 134.75766 25925 ft 428 kts 270°
2026-04-20 20:21 48.58263 134.71323 26307 ft 431 kts 271°
2026-04-20 20:21 48.58744 134.66841 26625 ft 433 kts 270°
2026-04-20 20:21 48.59227 134.62336 26963 ft 436 kts 270°
2026-04-20 20:22 48.59713 134.57797 27286 ft 438 kts 270°
2026-04-20 20:22 48.60202 134.53245 27620 ft 440 kts 270°
2026-04-20 20:22 48.60694 134.48669 27954 ft 442 kts 270°
2026-04-20 20:22 48.61185 134.44084 28277 ft 444 kts 270°
2026-04-20 20:23 48.61673 134.39470 28599 ft 445 kts 270°
2026-04-20 20:23 48.62156 134.34845 28915 ft 447 kts 269°
2026-04-20 20:23 48.62636 134.30196 29219 ft 448 kts 269°
2026-04-20 20:23 48.63118 134.25534 29516 ft 450 kts 269°
2026-04-20 20:24 48.63604 134.20854 29764 ft 452 kts 269°
2026-04-20 20:24 48.64094 134.16155 30032 ft 453 kts 270°
2026-04-20 20:24 48.64583 134.11439 30236 ft 456 kts 271°
2026-04-20 20:24 48.65277 134.06716 30464 ft 462 kts 276°
2026-04-20 20:25 48.66045 134.02004 30766 ft 461 kts 276°
2026-04-20 20:25 48.66813 133.97294 31067 ft 461 kts 276°
2026-04-20 20:25 48.67577 133.92589 31371 ft 460 kts 276°
2026-04-20 20:25 48.68440 133.87912 31704 ft 466 kts 285°
2026-04-20 20:26 48.69938 133.83514 31987 ft 477 kts 299°
2026-04-20 20:26 48.71913 133.79454 32279 ft 480 kts 302°
2026-04-20 20:26 48.73918 133.75495 32470 ft 480 kts 302°
2026-04-20 20:26 48.75911 133.71454 32505 ft 479 kts 301°
2026-04-20 20:27 48.77669 133.67158 32515 ft 468 kts 287°
2026-04-20 20:27 48.78605 133.62581 32513 ft 453 kts 271°
2026-04-20 20:27 48.78639 133.57899 32512 ft 431 kts 259°
2026-04-20 20:27 48.78418 133.53381 32516 ft 429 kts 259°
2026-04-20 20:28 48.77980 133.44425 32522 ft 428 kts 259°
2026-04-20 20:28 48.77540 133.35429 32523 ft 428 kts 259°
2026-04-20 20:29 48.78051 133.26278 32537 ft 443 kts 276°
2026-04-20 20:29 48.79783 133.17336 32543 ft 453 kts 289°
2026-04-20 20:30 48.82468 133.08688 32531 ft 454 kts 290°
2026-04-20 20:30 48.85189 133.00041 32526 ft 454 kts 290°
2026-04-20 20:31 48.87893 132.91380 32531 ft 454 kts 289°
2026-04-20 20:31 48.90580 132.82700 32531 ft 454 kts 289°
2026-04-20 20:32 48.93263 132.74003 32533 ft 454 kts 289°
2026-04-20 20:32 48.95939 132.65312 32562 ft 454 kts 290°
2026-04-20 20:33 48.98606 132.56611 32558 ft 454 kts 289°
2026-04-20 20:33 49.01261 132.47897 32554 ft 453 kts 289°
2026-04-20 20:34 49.03910 132.39187 32564 ft 453 kts 290°
2026-04-20 20:34 49.06559 132.30486 32549 ft 453 kts 290°
2026-04-20 20:35 49.09194 132.21772 32548 ft 452 kts 290°
2026-04-20 20:35 49.11813 132.13059 32541 ft 451 kts 290°
2026-04-20 20:36 49.14429 132.04346 32560 ft 451 kts 290°
2026-04-20 20:36 49.17043 131.95630 32553 ft 451 kts 290°
2026-04-20 20:37 49.19640 131.86910 32557 ft 451 kts 290°
2026-04-20 20:37 49.22230 131.78188 32552 ft 450 kts 290°
2026-04-20 20:38 49.24809 131.69463 32576 ft 450 kts 290°
2026-04-20 20:38 49.27384 131.60738 32573 ft 449 kts 290°
2026-04-20 20:39 49.29956 131.52017 32565 ft 449 kts 290°
2026-04-20 20:39 49.32510 131.43303 32560 ft 448 kts 290°
2026-04-20 20:40 49.35053 131.34586 32557 ft 448 kts 290°
2026-04-20 20:40 49.37586 131.25859 32565 ft 447 kts 290°
2026-04-20 20:41 49.40087 131.17202 32566 ft 446 kts 290°
2026-04-20 20:41 49.42616 131.08429 32562 ft 446 kts 290°
2026-04-20 20:42 49.45123 130.99714 32558 ft 446 kts 290°
2026-04-20 20:42 49.47615 130.91059 32559 ft 446 kts 291°
2026-04-20 20:43 49.50122 130.82285 32564 ft 445 kts 290°
2026-04-20 20:43 49.52581 130.73624 32562 ft 444 kts 290°
2026-04-20 20:44 49.55054 130.64916 32572 ft 443 kts 291°
2026-04-20 20:44 49.57506 130.56227 32575 ft 442 kts 291°
2026-04-20 20:45 49.59948 130.47549 32576 ft 440 kts 291°
2026-04-20 20:45 49.61982 130.40292 32565 ft 439 kts 291°
2026-04-20 20:46 49.64389 130.31647 32560 ft 439 kts 291°
2026-04-20 20:46 49.66796 130.22998 32560 ft 438 kts 291°
2026-04-20 20:47 49.69194 130.14356 32554 ft 438 kts 291°
2026-04-20 20:47 49.71574 130.05770 32560 ft 437 kts 291°
2026-04-20 20:48 49.73950 129.97120 32558 ft 437 kts 291°
2026-04-20 20:48 49.76325 129.88473 32552 ft 437 kts 291°
2026-04-20 20:49 49.78707 129.79747 32541 ft 447 kts 291°
2026-04-20 20:49 49.81140 129.70810 32541 ft 452 kts 291°
2026-04-20 20:50 49.83575 129.61831 32536 ft 452 kts 291°
2026-04-20 20:50 49.86007 129.52844 32536 ft 451 kts 291°
2026-04-20 20:51 49.87208 129.48397 32156 ft 446 kts 291°
2026-04-20 20:51 49.88400 129.43963 31483 ft 445 kts 291°
2026-04-20 20:51 49.89589 129.39538 30836 ft 444 kts 291°
2026-04-20 20:51 49.90776 129.35122 30202 ft 443 kts 291°
2026-04-20 20:52 49.91960 129.30708 29546 ft 442 kts 291°
2026-04-20 20:52 49.93123 129.26358 28721 ft 431 kts 291°
2026-04-20 20:52 49.94256 129.22112 27930 ft 421 kts 291°
2026-04-20 20:52 49.95362 129.17959 27151 ft 412 kts 291°
2026-04-20 20:53 49.96441 129.13895 26407 ft 403 kts 291°
2026-04-20 20:53 49.97498 129.09904 25674 ft 396 kts 291°
2026-04-20 20:53 49.98535 129.05978 24959 ft 389 kts 291°
2026-04-20 20:53 49.99551 129.02119 24266 ft 383 kts 292°
2026-04-20 20:54 50.00552 128.98318 23589 ft 377 kts 292°
2026-04-20 20:54 50.01535 128.94580 22870 ft 371 kts 292°
2026-04-20 20:54 50.02503 128.90891 22078 ft 366 kts 292°
2026-04-20 20:54 50.03457 128.87249 21297 ft 362 kts 292°
2026-04-20 20:55 50.04400 128.83646 20531 ft 359 kts 292°
2026-04-20 20:55 50.05346 128.80024 19792 ft 361 kts 292°
2026-04-20 20:55 50.06288 128.76419 19076 ft 359 kts 292°
2026-04-20 20:55 50.07236 128.72789 18354 ft 366 kts 292°
2026-04-20 20:56 50.08199 128.69090 17642 ft 371 kts 292°
2026-04-20 20:56 50.09170 128.65353 16833 ft 371 kts 292°
2026-04-20 20:56 50.10126 128.61671 16058 ft 362 kts 292°
2026-04-20 20:56 50.11058 128.58076 15314 ft 354 kts 292°
2026-04-20 20:57 50.11968 128.54553 14574 ft 347 kts 292°
2026-04-20 20:57 50.12858 128.51097 13854 ft 340 kts 292°
2026-04-20 20:57 50.13733 128.47702 13119 ft 335 kts 292°
2026-04-20 20:57 50.14594 128.44364 12326 ft 329 kts 292°
2026-04-20 20:58 50.15441 128.41080 11562 ft 324 kts 291°
2026-04-20 20:58 50.16269 128.37850 10811 ft 318 kts 291°
2026-04-20 20:58 50.17084 128.34669 10075 ft 313 kts 291°
2026-04-20 20:58 50.17886 128.31535 9349 ft 309 kts 291°
2026-04-20 20:59 50.18672 128.28452 8566 ft 304 kts 291°
2026-04-20 20:59 50.19448 128.25403 7822 ft 299 kts 291°
2026-04-20 20:59 50.20189 128.22490 7625 ft 279 kts 291°
2026-04-20 20:59 50.20901 128.19697 7491 ft 275 kts 291°
2026-04-20 21:00 50.21608 128.16921 7360 ft 274 kts 291°
2026-04-20 21:00 50.22372 128.14248 7235 ft 273 kts 299°
2026-04-20 21:00 50.23387 128.11748 7096 ft 273 kts 303°
2026-04-20 21:00 50.24421 128.09272 6964 ft 272 kts 303°
2026-04-20 21:01 50.25453 128.06790 6830 ft 271 kts 303°
2026-04-20 21:01 50.26477 128.04322 6704 ft 271 kts 303°
2026-04-20 21:01 50.27503 128.01854 6578 ft 270 kts 303°
2026-04-20 21:01 50.28525 127.99397 6448 ft 269 kts 303°
2026-04-20 21:02 50.29543 127.96944 6318 ft 269 kts 303°
2026-04-20 21:02 50.30556 127.94496 6194 ft 268 kts 303°
2026-04-20 21:02 50.31567 127.92052 6060 ft 267 kts 303°
2026-04-20 21:02 50.32578 127.89611 5952 ft 265 kts 303°
2026-04-20 21:03 50.33547 127.87272 5946 ft 257 kts 303°
2026-04-20 21:03 50.34556 127.84828 5809 ft 272 kts 303°
2026-04-20 21:03 50.35568 127.82367 5669 ft 267 kts 303°
2026-04-20 21:03 50.36570 127.79935 5533 ft 265 kts 303°
2026-04-20 21:04 50.37571 127.77510 5397 ft 265 kts 303°
2026-04-20 21:04 50.38576 127.75069 5261 ft 267 kts 303°
2026-04-20 21:04 50.39573 127.72640 5125 ft 264 kts 303°
2026-04-20 21:04 50.40295 127.70025 4990 ft 263 kts 280°
2026-04-20 21:05 50.40322 127.67162 4859 ft 264 kts 265°
2026-04-20 21:05 50.40124 127.64304 4725 ft 264 kts 264°
2026-04-20 21:05 50.39968 127.61446 4593 ft 263 kts 267°
2026-04-20 21:05 50.39886 127.58589 4460 ft 262 kts 269°
2026-04-20 21:06 50.39823 127.55736 4326 ft 262 kts 269°
2026-04-20 21:06 50.39762 127.52881 4195 ft 260 kts 269°
2026-04-20 21:06 50.39701 127.50157 4050 ft 247 kts 269°
2026-04-20 21:06 50.39643 127.47511 3923 ft 241 kts 269°
2026-04-20 21:07 50.39584 127.44896 3762 ft 237 kts 269°
2026-04-20 21:07 50.39526 127.42357 3633 ft 230 kts 269°
2026-04-20 21:07 50.39470 127.39874 3495 ft 228 kts 269°
2026-04-20 21:07 50.39412 127.37394 3360 ft 228 kts 269°
2026-04-20 21:08 50.39354 127.34909 3238 ft 228 kts 269°
2026-04-20 21:08 50.39280 127.32440 3091 ft 227 kts 264°
2026-04-20 21:08 50.38699 127.30173 2997 ft 227 kts 230°
2026-04-20 21:08 50.37402 127.28781 2999 ft 230 kts 196°
2026-04-20 21:09 50.35815 127.28695 3283 ft 232 kts 167°
2026-04-20 21:09 50.34383 127.29809 4156 ft 233 kts 135°
2026-04-20 21:09 50.33514 127.31944 4807 ft 237 kts 105°
2026-04-20 21:09 50.33408 127.34468 4967 ft 233 kts 82°
2026-04-20 21:10 50.33680 127.36963 4994 ft 232 kts 77°
2026-04-20 21:10 50.34007 127.39437 4997 ft 232 kts 77°
2026-04-20 21:10 50.34343 127.41911 4999 ft 232 kts 77°
2026-04-20 21:10 50.34681 127.44382 4999 ft 232 kts 77°
2026-04-20 21:11 50.35020 127.46853 5002 ft 232 kts 77°
2026-04-20 21:11 50.35361 127.49320 4995 ft 232 kts 77°
2026-04-20 21:11 50.35704 127.51787 4996 ft 232 kts 77°
2026-04-20 21:11 50.36047 127.54264 4997 ft 233 kts 77°
2026-04-20 21:12 50.36392 127.56730 4995 ft 232 kts 77°
2026-04-20 21:12 50.36814 127.59159 4807 ft 230 kts 62°
2026-04-20 21:12 50.37850 127.60981 4459 ft 225 kts 29°
2026-04-20 21:12 50.39335 127.61592 4066 ft 223 kts 355°
2026-04-20 21:13 50.40769 127.60782 3723 ft 223 kts 322°
2026-04-20 21:13 50.41878 127.59085 3355 ft 224 kts 312°
2026-04-20 21:13 50.42663 127.57038 3056 ft 223 kts 283°
2026-04-20 21:13 50.42685 127.54597 3004 ft 225 kts 263°
2026-04-20 21:14 50.42295 127.52213 2991 ft 227 kts 250°
2026-04-20 21:14 50.41674 127.49922 2995 ft 228 kts 246°
2026-04-20 21:14 50.41015 127.47666 2994 ft 224 kts 246°
2026-04-20 21:14 50.40384 127.45535 3002 ft 210 kts 246°
2026-04-20 21:15 50.39778 127.43493 3074 ft 206 kts 246°
2026-04-20 21:15 50.39163 127.41397 3021 ft 210 kts 247°
2026-04-20 21:15 50.38869 127.39201 2997 ft 206 kts 279°
2026-04-20 21:15 50.39450 127.37180 2999 ft 203 kts 316°
2026-04-20 21:16 50.40648 127.36074 3011 ft 202 kts 342°
2026-04-20 21:16 50.41975 127.35353 3002 ft 202 kts 338°
2026-04-20 21:16 50.43317 127.34843 2978 ft 201 kts
2026-04-20 21:16 50.44592 127.35646 2997 ft 202 kts 42°
2026-04-20 21:17 50.45327 127.37502 3006 ft 204 kts 71°
2026-04-20 21:17 50.45698 127.39660 3006 ft 205 kts 76°
2026-04-20 21:17 50.46006 127.41844 3007 ft 205 kts 77°
2026-04-20 21:17 50.46305 127.44036 3000 ft 206 kts 77°
2026-04-20 21:18 50.46602 127.46227 2999 ft 205 kts 77°
2026-04-20 21:18 50.47043 127.48335 2997 ft 203 kts 54°
2026-04-20 21:18 50.48112 127.49716 3007 ft 201 kts 24°
2026-04-20 21:18 50.49415 127.50487 3000 ft 198 kts 18°
2026-04-20 21:19 50.50731 127.50968 2989 ft 193 kts 357°
2026-04-20 21:19 50.51967 127.50260 2999 ft 193 kts 319°
2026-04-20 21:19 50.52645 127.48483 2998 ft 195 kts 280°
2026-04-20 21:20 50.51548 127.44796 3007 ft 198 kts 221°
2026-04-20 21:20 50.50551 127.43334 2768 ft 193 kts 226°
2026-04-20 21:20 50.49647 127.41883 2614 ft 178 kts 227°
2026-04-20 21:20 50.48718 127.40762 2492 ft 160 kts 207°
2026-04-20 21:21 50.47709 127.40248 2256 ft 150 kts 188°
2026-04-20 21:21 50.46677 127.40262 1944 ft 149 kts 169°
2026-04-20 21:21 50.45660 127.40590 1638 ft 151 kts 168°
2026-04-20 21:21 50.44560 127.40947 1779 ft 173 kts 168°
2026-04-20 21:22 50.43289 127.41349 1938 ft 198 kts 168°
2026-04-20 21:22 50.41956 127.41978 2258 ft 214 kts 162°
2026-04-20 21:22 50.40425 127.42393 2904 ft 235 kts 171°
2026-04-20 21:22 50.38658 127.42859 2994 ft 285 kts 169°
2026-04-20 21:23 50.36668 127.43408 2968 ft 284 kts 170°
2026-04-20 21:23 50.34895 127.44412 2993 ft 262 kts 142°
2026-04-20 21:23 50.33892 127.46572 2992 ft 237 kts 103°
2026-04-20 21:23 50.33987 127.48966 2994 ft 215 kts 62°
2026-04-20 21:24 50.35002 127.50505 2900 ft 207 kts 27°
2026-04-20 21:24 50.36200 127.51658 2876 ft 189 kts 39°
2026-04-20 21:24 50.37031 127.53292 3370 ft 199 kts 65°
2026-04-20 21:24 50.37328 127.55359 4270 ft 192 kts 89°
2026-04-20 21:25 50.36971 127.57505 4430 ft 211 kts 130°
2026-04-20 21:25 50.35783 127.58856 4497 ft 214 kts 167°
2026-04-20 21:25 50.34337 127.58600 4523 ft 215 kts 212°
2026-04-20 21:25 50.33366 127.56877 4327 ft 217 kts 250°
2026-04-20 21:26 50.33091 127.54572 3944 ft 218 kts 270°
2026-04-20 21:26 50.33178 127.52253 3859 ft 212 kts 280°
2026-04-20 21:26 50.33491 127.49978 3810 ft 211 kts 283°
2026-04-20 21:26 50.33809 127.47743 3754 ft 210 kts 288°
2026-04-20 21:27 50.34501 127.45778 3677 ft 205 kts 319°
2026-04-20 21:27 50.35707 127.44887 3622 ft 192 kts 356°
2026-04-20 21:27 50.36977 127.45375 3559 ft 191 kts 34°
2026-04-20 21:27 50.37772 127.46985 3468 ft 190 kts 70°
2026-04-20 21:28 50.37791 127.49027 3370 ft 192 kts 107°
2026-04-20 21:28 50.37282 127.50968 3299 ft 192 kts 110°
2026-04-20 21:28 50.36814 127.52934 3224 ft 193 kts 108°
2026-04-20 21:28 50.36367 127.54917 3131 ft 193 kts 108°
2026-04-20 21:29 50.35923 127.56890 3042 ft 192 kts 108°
2026-04-20 21:29 50.35479 127.58859 2995 ft 191 kts 108°
2026-04-20 21:29 50.35031 127.60818 2994 ft 191 kts 108°
2026-04-20 21:29 50.34500 127.62727 2987 ft 192 kts 126°
2026-04-20 21:30 50.33426 127.63934 2995 ft 194 kts 163°
2026-04-20 21:30 50.32097 127.63878 2997 ft 194 kts 202°
2026-04-20 21:30 50.31062 127.62580 2996 ft 194 kts 242°
2026-04-20 21:30 50.30736 127.60597 2993 ft 190 kts 277°
2026-04-20 21:31 50.31106 127.58629 3001 ft 189 kts 292°
2026-04-20 21:31 50.31558 127.56698 2996 ft 189 kts 291°
2026-04-20 21:31 50.32007 127.54764 2997 ft 189 kts 291°
2026-04-20 21:31 50.32458 127.52828 2998 ft 189 kts 291°
2026-04-20 21:32 50.32783 127.51563 2997 ft 189 kts 300°
2026-04-20 21:32 50.34072 127.49830 2998 ft 186 kts 343°
2026-04-20 21:32 50.34919 127.49701 2985 ft 186 kts 10°
2026-04-20 21:32 50.36083 127.50537 3002 ft 188 kts 43°
2026-04-20 21:33 50.36712 127.52297 2991 ft 189 kts 79°
2026-04-20 21:33 50.36564 127.54335 2998 ft 192 kts 110°
2026-04-20 21:33 50.36068 127.56275 3003 ft 192 kts 110°
2026-04-20 21:33 50.35610 127.58237 2998 ft 192 kts 108°
2026-04-20 21:34 50.35163 127.60201 2997 ft 192 kts 108°
2026-04-20 21:34 50.34694 127.62154 2995 ft 192 kts 116°
2026-04-20 21:34 50.33791 127.63661 2992 ft 194 kts 152°
2026-04-20 21:34 50.32485 127.64026 2995 ft 194 kts 191°
2026-04-20 21:35 50.31313 127.63065 3003 ft 193 kts 229°
2026-04-20 21:35 50.30751 127.61209 2992 ft 190 kts 266°
2026-04-20 21:35 50.30972 127.59213 3012 ft 189 kts 293°
2026-04-20 21:35 50.31437 127.57289 3010 ft 189 kts 291°
2026-04-20 21:36 50.31887 127.55356 3002 ft 189 kts 291°
2026-04-20 21:36 50.32333 127.53418 2994 ft 189 kts 291°
2026-04-20 21:36 50.32809 127.51500 2993 ft 189 kts 300°
2026-04-20 21:36 50.33713 127.50070 2988 ft 186 kts 334°
2026-04-20 21:37 50.34966 127.49720 2982 ft 186 kts
2026-04-20 21:37 50.36112 127.50601 3004 ft 187 kts 44°
2026-04-20 21:37 50.36717 127.52377 3000 ft 189 kts 79°
2026-04-20 21:37 50.36555 127.54408 3003 ft 191 kts 109°
2026-04-20 21:38 50.36031 127.56293 2991 ft 193 kts 125°
2026-04-20 21:38 50.34913 127.57346 2992 ft 194 kts 175°
2026-04-20 21:38 50.33646 127.56749 2998 ft 194 kts 221°
2026-04-20 21:38 50.33067 127.54934 2993 ft 189 kts 272°
2026-04-20 21:39 50.33480 127.53028 3019 ft 188 kts 301°
2026-04-20 21:39 50.33997 127.51144 2998 ft 189 kts 294°
2026-04-20 21:39 50.34687 127.49412 3003 ft 188 kts 309°
2026-04-20 21:39 50.35500 127.47814 3000 ft 188 kts 310°
2026-04-20 21:40 50.36399 127.46341 2994 ft 187 kts 320°
2026-04-20 21:40 50.37408 127.45056 3002 ft 187 kts 324°
2026-04-20 21:40 50.38437 127.43811 2993 ft 187 kts 323°
2026-04-20 21:40 50.39534 127.42741 2997 ft 186 kts 339°
2026-04-20 21:41 50.40800 127.42404 2992 ft 186 kts
2026-04-20 21:41 50.42088 127.42491 3023 ft 186 kts
2026-04-20 21:41 50.43377 127.42646 3008 ft 186 kts
2026-04-20 21:41 50.44667 127.42805 2997 ft 185 kts
2026-04-20 21:42 50.45938 127.42970 2735 ft 184 kts
2026-04-20 21:42 50.47187 127.43132 2569 ft 174 kts
2026-04-20 21:42 50.48363 127.43286 2431 ft 165 kts
2026-04-20 21:42 50.49478 127.43431 2254 ft 159 kts
2026-04-20 21:43 50.50570 127.43574 2089 ft 156 kts
2026-04-20 21:43 50.51622 127.43710 2009 ft 147 kts
2026-04-20 21:43 50.52614 127.43838 1984 ft 141 kts
2026-04-20 21:43 50.53570 127.43961 2000 ft 139 kts
2026-04-20 21:44 50.54547 127.44088 2006 ft 139 kts
2026-04-20 21:44 50.55500 127.44210 2019 ft 138 kts
2026-04-20 21:44 50.56437 127.44323 2011 ft 137 kts
2026-04-20 21:44 50.57384 127.44439 1997 ft 136 kts
2026-04-20 21:45 50.58328 127.44559 1996 ft 136 kts
2026-04-20 21:45 50.59273 127.44680 1999 ft 136 kts
2026-04-20 21:45 50.60216 127.44763 1997 ft 136 kts 356°
2026-04-20 21:45 50.61022 127.44064 2001 ft 139 kts 304°
2026-04-20 21:46 50.61137 127.42575 2001 ft 145 kts 251°
2026-04-20 21:46 50.60580 127.41246 2003 ft 147 kts 231°
2026-04-20 21:46 50.59885 127.40068 2000 ft 147 kts 227°
2026-04-20 21:46 50.59168 127.38915 2002 ft 147 kts 227°
2026-04-20 21:47 50.58449 127.37767 1999 ft 147 kts 227°
2026-04-20 21:47 50.57729 127.36624 1987 ft 147 kts 227°
2026-04-20 21:47 50.56949 127.35599 1984 ft 148 kts 202°
2026-04-20 21:47 50.55947 127.35626 2004 ft 148 kts 159°
2026-04-20 21:48 50.55027 127.36350 1997 ft 148 kts 148°
2026-04-20 21:48 50.54149 127.37183 2002 ft 148 kts 148°
2026-04-20 21:48 50.53273 127.38026 1996 ft 148 kts 150°
2026-04-20 21:48 50.52275 127.38408 2031 ft 150 kts 170°
2026-04-20 21:49 50.51258 127.38746 1986 ft 150 kts 167°
2026-04-20 21:49 50.50238 127.39091 1861 ft 150 kts 167°
2026-04-20 21:49 50.49222 127.39427 1678 ft 149 kts 168°
2026-04-20 21:49 50.48212 127.39757 1459 ft 148 kts 168°
2026-04-20 21:50 50.47214 127.40085 1271 ft 146 kts 168°
2026-04-20 21:50 50.46232 127.40433 1074 ft 144 kts 169°
2026-04-20 21:50 50.45256 127.40728 903 ft 142 kts 170°
2026-04-20 21:50 50.44295 127.41033 735 ft 141 kts 169°
2026-04-20 21:51 50.43372 127.41332 659 ft 123 kts 169°
2026-04-20 21:51 50.42791 127.41518 656 ft 42 kts 168°
2026-04-20 21:51 50.42566 127.41591 658 ft 31 kts 168°
2026-04-20 21:51 50.42374 127.41654 661 ft 23 kts 168°
2026-04-20 21:52 50.42270 127.41558 658 ft 15 kts 254°
2026-04-20 21:52 50.42257 127.41471 658 ft 0 kts 258°
2026-04-20 21:53 50.42252 127.41434 658 ft 7 kts 258°
2026-04-20 21:53 50.42236 127.41311 657 ft 15 kts 258°
2026-04-20 21:54 50.42213 127.41140 657 ft 17 kts 258°
2026-04-20 21:54 50.42186 127.40988 657 ft 12 kts 229°
2026-04-20 21:54 50.42113 127.40994 658 ft 10 kts 167°
2026-04-20 21:54 50.42049 127.41015 658 ft 8 kts 168°
2026-04-20 21:55 50.41997 127.41033 658 ft 7 kts 168°
2026-04-20 21:55 50.41954 127.41047 658 ft 6 kts 168°
2026-04-20 21:55 50.41910 127.41062 658 ft 7 kts 168°
2026-04-20 21:55 50.41868 127.41075 658 ft 5 kts 168°
2026-04-20 21:56 50.41846 127.41057 658 ft 3 kts 220°
2026-04-20 21:56 50.41839 127.41036 658 ft 1 kts 253°
2026-04-20 21:56 50.41838 127.41032 658 ft 0 kts 254°